Retour au catalogue

GOUMANG

ActifScienceSSO
NORAD 53346·PAYLOAD·🇨🇳 China
Ce nom de satellite n'a pas encore été confirmé par des sources officielles.

Lancé Aug 4, 2022 depuis Taiyuan Satellite Launch Center

Loading…

Prochains Passages (prochaines 24 heures)

TLE

FraisSource: Space-Track

Époque: Sep 14, 2026, 14:34 UTC

1 53346U 22090A   26257.60759753  .00002807  00000-0  12752-3 0  9995
2 53346  97.3052 323.1421 0002913 198.6013 161.5118 15.21564852228406

Suivez GOUMANG en temps réel avec AllMySat

Download on the App Store